#datetime,building,power
2023-02-13T00:00:00,75s,1.47
2023-02-13T00:01:00,75s,1.63
2023-02-13T00:02:00,75s,10.99
2023-02-13T00:03:00,75s,10.78
2023-02-13T00:04:00,75s,10.56
2023-02-13T00:05:00,75s,10.50
2023-02-13T00:06:00,75s,10.45
2023-02-13T00:07:00,75s,10.48
2023-02-13T00:08:00,75s,1.52
2023-02-13T00:09:00,75s,1.51
2023-02-13T00:10:00,75s,1.41
2023-02-13T00:11:00,75s,1.48
2023-02-13T00:12:00,75s,1.77
2023-02-13T00:13:00,75s,1.50
2023-02-13T00:14:00,75s,1.40
2023-02-13T00:15:00,75s,1.59
2023-02-13T00:16:00,75s,1.73
2023-02-13T00:17:00,75s,1.58
2023-02-13T00:18:00,75s,1.48
2023-02-13T00:19:00,75s,1.57
2023-02-13T00:20:00,75s,1.45
2023-02-13T00:21:00,75s,1.44
2023-02-13T00:22:00,75s,1.46
2023-02-13T00:23:00,75s,1.43
2023-02-13T00:24:00,75s,1.46
2023-02-13T00:25:00,75s,1.37
2023-02-13T00:26:00,75s,1.36
2023-02-13T00:27:00,75s,1.33
2023-02-13T00:28:00,75s,1.33
2023-02-13T00:29:00,75s,1.43
2023-02-13T00:30:00,75s,1.50
2023-02-13T00:31:00,75s,1.71
2023-02-13T00:32:00,75s,1.47
2023-02-13T00:33:00,75s,1.36
2023-02-13T00:34:00,75s,1.49
2023-02-13T00:35:00,75s,1.69
2023-02-13T00:36:00,75s,1.46
2023-02-13T00:37:00,75s,1.39
2023-02-13T00:38:00,75s,1.36
2023-02-13T00:39:00,75s,1.39
2023-02-13T00:40:00,75s,1.22
2023-02-13T00:41:00,75s,1.26
2023-02-13T00:42:00,75s,1.33
2023-02-13T00:43:00,75s,1.27
2023-02-13T00:44:00,75s,1.33
2023-02-13T00:45:00,75s,1.29
2023-02-13T00:46:00,75s,1.28
2023-02-13T00:47:00,75s,1.16
2023-02-13T00:48:00,75s,1.27
2023-02-13T00:49:00,75s,1.26
2023-02-13T00:50:00,75s,1.27
2023-02-13T00:51:00,75s,1.16
2023-02-13T00:52:00,75s,1.15
2023-02-13T00:53:00,75s,1.65
2023-02-13T00:54:00,75s,1.27
2023-02-13T00:55:00,75s,1.27
2023-02-13T00:56:00,75s,1.34
2023-02-13T00:57:00,75s,1.44
2023-02-13T00:58:00,75s,1.70
2023-02-13T00:59:00,75s,1.53
2023-02-13T01:00:00,75s,1.45
2023-02-13T01:01:00,75s,1.20
2023-02-13T01:02:00,75s,1.08
2023-02-13T01:03:00,75s,1.45
2023-02-13T01:04:00,75s,1.19
2023-02-13T01:05:00,75s,1.13
2023-02-13T01:06:00,75s,1.10
2023-02-13T01:07:00,75s,1.07
2023-02-13T01:08:00,75s,1.17
2023-02-13T01:09:00,75s,1.11
2023-02-13T01:10:00,75s,1.10
2023-02-13T01:11:00,75s,1.18
2023-02-13T01:12:00,75s,1.15
2023-02-13T01:13:00,75s,1.39
2023-02-13T01:14:00,75s,1.77
2023-02-13T01:15:00,75s,1.51
2023-02-13T01:16:00,75s,1.49
2023-02-13T01:17:00,75s,1.32
2023-02-13T01:18:00,75s,1.20
2023-02-13T01:19:00,75s,1.16
2023-02-13T01:20:00,75s,1.10
2023-02-13T01:21:00,75s,1.08
2023-02-13T01:22:00,75s,1.24
2023-02-13T01:23:00,75s,1.08
2023-02-13T01:24:00,75s,1.11
2023-02-13T01:25:00,75s,1.09
2023-02-13T01:26:00,75s,1.14
2023-02-13T01:27:00,75s,1.34
2023-02-13T01:28:00,75s,1.25
2023-02-13T01:29:00,75s,1.36
2023-02-13T01:30:00,75s,1.28
2023-02-13T01:31:00,75s,1.63
2023-02-13T01:32:00,75s,1.12
2023-02-13T01:33:00,75s,1.18
2023-02-13T01:34:00,75s,1.15
2023-02-13T01:35:00,75s,1.14
2023-02-13T01:36:00,75s,1.11
2023-02-13T01:37:00,75s,1.17
2023-02-13T01:38:00,75s,1.31
2023-02-13T01:39:00,75s,1.09
2023-02-13T01:40:00,75s,1.12
2023-02-13T01:41:00,75s,1.02
2023-02-13T01:42:00,75s,1.26
2023-02-13T01:43:00,75s,1.21
2023-02-13T01:44:00,75s,1.19
2023-02-13T01:45:00,75s,1.25
2023-02-13T01:46:00,75s,1.02
2023-02-13T01:47:00,75s,1.00
2023-02-13T01:48:00,75s,1.01
2023-02-13T01:49:00,75s,1.01
2023-02-13T01:50:00,75s,1.11
2023-02-13T01:51:00,75s,1.75
2023-02-13T01:52:00,75s,1.19
2023-02-13T01:53:00,75s,1.32
2023-02-13T01:54:00,75s,1.30
2023-02-13T01:55:00,75s,1.63
2023-02-13T01:56:00,75s,1.34
2023-02-13T01:57:00,75s,1.69
2023-02-13T01:58:00,75s,1.22
2023-02-13T01:59:00,75s,1.28
2023-02-13T02:00:00,75s,1.24
2023-02-13T02:01:00,75s,1.66
2023-02-13T02:02:00,75s,1.61
2023-02-13T02:03:00,75s,1.26
2023-02-13T02:04:00,75s,1.18
2023-02-13T02:05:00,75s,1.24
2023-02-13T02:06:00,75s,1.25
2023-02-13T02:07:00,75s,1.22
2023-02-13T02:08:00,75s,1.15
2023-02-13T02:09:00,75s,1.15
2023-02-13T02:10:00,75s,1.16
2023-02-13T02:11:00,75s,1.29
2023-02-13T02:12:00,75s,1.43
2023-02-13T02:13:00,75s,1.43
2023-02-13T02:14:00,75s,1.22
2023-02-13T02:15:00,75s,1.07
2023-02-13T02:16:00,75s,1.08
2023-02-13T02:17:00,75s,1.05
2023-02-13T02:18:00,75s,1.18
2023-02-13T02:19:00,75s,1.59
2023-02-13T02:20:00,75s,0.98
2023-02-13T02:21:00,75s,0.98
2023-02-13T02:22:00,75s,0.98
2023-02-13T02:23:00,75s,1.21
2023-02-13T02:24:00,75s,0.99
2023-02-13T02:25:00,75s,1.36
2023-02-13T02:26:00,75s,1.18
2023-02-13T02:27:00,75s,1.14
2023-02-13T02:28:00,75s,1.11
2023-02-13T02:29:00,75s,1.00
2023-02-13T02:30:00,75s,1.24
2023-02-13T02:31:00,75s,0.93
2023-02-13T02:32:00,75s,1.04
2023-02-13T02:33:00,75s,1.02
2023-02-13T02:34:00,75s,1.04
2023-02-13T02:35:00,75s,1.09
2023-02-13T02:36:00,75s,1.02
2023-02-13T02:37:00,75s,0.97
2023-02-13T02:38:00,75s,0.94
2023-02-13T02:39:00,75s,0.95
2023-02-13T02:40:00,75s,1.15
2023-02-13T02:41:00,75s,1.12
2023-02-13T02:42:00,75s,1.32
2023-02-13T02:43:00,75s,1.20
2023-02-13T02:44:00,75s,1.18
2023-02-13T02:45:00,75s,1.10
2023-02-13T02:46:00,75s,1.13
2023-02-13T02:47:00,75s,1.04
2023-02-13T02:48:00,75s,1.03
2023-02-13T02:49:00,75s,1.04
2023-02-13T02:50:00,75s,1.11
2023-02-13T02:51:00,75s,1.11
2023-02-13T02:52:00,75s,1.22
2023-02-13T02:53:00,75s,1.20
2023-02-13T02:54:00,75s,1.29
2023-02-13T02:55:00,75s,1.51
2023-02-13T02:56:00,75s,1.49
2023-02-13T02:57:00,75s,1.33
2023-02-13T02:58:00,75s,1.16
2023-02-13T02:59:00,75s,1.73
2023-02-13T03:00:00,75s,1.18
2023-02-13T03:01:00,75s,1.29
2023-02-13T03:02:00,75s,1.57
2023-02-13T03:03:00,75s,1.20
2023-02-13T03:04:00,75s,1.13
2023-02-13T03:05:00,75s,1.46
2023-02-13T03:06:00,75s,1.20
2023-02-13T03:07:00,75s,1.18
2023-02-13T03:08:00,75s,1.20
2023-02-13T03:09:00,75s,1.08
2023-02-13T03:10:00,75s,1.18
2023-02-13T03:11:00,75s,1.17
2023-02-13T03:12:00,75s,1.27
2023-02-13T03:13:00,75s,1.12
2023-02-13T03:14:00,75s,1.55
2023-02-13T03:15:00,75s,1.12
2023-02-13T03:16:00,75s,1.20
2023-02-13T03:17:00,75s,1.09
2023-02-13T03:18:00,75s,1.10
2023-02-13T03:19:00,75s,1.12
2023-02-13T03:20:00,75s,1.16
2023-02-13T03:21:00,75s,1.06
2023-02-13T03:22:00,75s,1.04
2023-02-13T03:23:00,75s,2.10
2023-02-13T03:24:00,75s,1.16
2023-02-13T03:25:00,75s,1.12
2023-02-13T03:26:00,75s,1.15
2023-02-13T03:27:00,75s,1.13
2023-02-13T03:28:00,75s,1.16
2023-02-13T03:29:00,75s,1.24
2023-02-13T03:30:00,75s,1.24
2023-02-13T03:31:00,75s,1.12
2023-02-13T03:32:00,75s,1.54
2023-02-13T03:33:00,75s,1.12
2023-02-13T03:34:00,75s,1.62
2023-02-13T03:35:00,75s,1.18
2023-02-13T03:36:00,75s,1.16
2023-02-13T03:37:00,75s,1.06
2023-02-13T03:38:00,75s,1.08
2023-02-13T03:39:00,75s,1.22
2023-02-13T03:40:00,75s,10.61
2023-02-13T03:41:00,75s,10.81
2023-02-13T03:42:00,75s,10.26
2023-02-13T03:43:00,75s,10.03
2023-02-13T03:44:00,75s,9.98
2023-02-13T03:45:00,75s,1.18
2023-02-13T03:46:00,75s,1.41
2023-02-13T03:47:00,75s,1.35
2023-02-13T03:48:00,75s,1.20
2023-02-13T03:49:00,75s,1.19
2023-02-13T03:50:00,75s,1.64
2023-02-13T03:51:00,75s,1.92
2023-02-13T03:52:00,75s,1.94
2023-02-13T03:53:00,75s,2.11
2023-02-13T03:54:00,75s,1.96
2023-02-13T03:55:00,75s,1.81
2023-02-13T03:56:00,75s,1.80
2023-02-13T03:57:00,75s,1.90
2023-02-13T03:58:00,75s,1.54
2023-02-13T03:59:00,75s,1.89
2023-02-13T04:00:00,75s,2.06
2023-02-13T04:01:00,75s,1.64
2023-02-13T04:02:00,75s,1.95
2023-02-13T04:03:00,75s,1.78
2023-02-13T04:04:00,75s,1.92
2023-02-13T04:05:00,75s,1.78
2023-02-13T04:06:00,75s,1.70
2023-02-13T04:07:00,75s,1.66
2023-02-13T04:08:00,75s,1.74
2023-02-13T04:09:00,75s,1.80
2023-02-13T04:10:00,75s,1.86
2023-02-13T04:11:00,75s,2.23
2023-02-13T04:12:00,75s,1.99
2023-02-13T04:13:00,75s,1.99
2023-02-13T04:14:00,75s,2.12
2023-02-13T04:15:00,75s,2.25
2023-02-13T04:16:00,75s,2.67
2023-02-13T04:17:00,75s,2.43
2023-02-13T04:18:00,75s,2.39
2023-02-13T04:19:00,75s,2.45
2023-02-13T04:20:00,75s,2.64
2023-02-13T04:21:00,75s,3.43
2023-02-13T04:22:00,75s,2.62
2023-02-13T04:23:00,75s,2.79
2023-02-13T04:24:00,75s,2.68
2023-02-13T04:25:00,75s,2.66
2023-02-13T04:26:00,75s,2.53
2023-02-13T04:27:00,75s,2.78
2023-02-13T04:28:00,75s,2.52
2023-02-13T04:29:00,75s,2.52
2023-02-13T04:30:00,75s,2.81
2023-02-13T04:31:00,75s,3.01
2023-02-13T04:32:00,75s,2.69
2023-02-13T04:33:00,75s,2.68
2023-02-13T04:34:00,75s,2.92
2023-02-13T04:35:00,75s,2.66
2023-02-13T04:36:00,75s,2.65
2023-02-13T04:37:00,75s,2.45
2023-02-13T04:38:00,75s,2.54
2023-02-13T04:39:00,75s,2.62
2023-02-13T04:40:00,75s,2.91
2023-02-13T04:41:00,75s,2.55
2023-02-13T04:42:00,75s,2.52
2023-02-13T04:43:00,75s,2.73
2023-02-13T04:44:00,75s,2.55
2023-02-13T04:45:00,75s,2.52
2023-02-13T04:46:00,75s,2.61
2023-02-13T04:47:00,75s,2.59
2023-02-13T04:48:00,75s,2.68
2023-02-13T04:49:00,75s,2.61
2023-02-13T04:50:00,75s,2.56
2023-02-13T04:51:00,75s,2.63
2023-02-13T04:52:00,75s,2.61
2023-02-13T04:53:00,75s,2.73
2023-02-13T04:54:00,75s,2.83
2023-02-13T04:55:00,75s,2.72
2023-02-13T04:56:00,75s,2.98
2023-02-13T04:57:00,75s,2.58
2023-02-13T04:58:00,75s,2.58
2023-02-13T04:59:00,75s,2.59
2023-02-13T05:00:00,75s,2.42
2023-02-13T05:01:00,75s,2.68
2023-02-13T05:02:00,75s,2.50
2023-02-13T05:03:00,75s,2.46
2023-02-13T05:04:00,75s,2.42
2023-02-13T05:05:00,75s,2.45
2023-02-13T05:06:00,75s,2.42
2023-02-13T05:07:00,75s,2.55
2023-02-13T05:08:00,75s,2.60
2023-02-13T05:09:00,75s,2.95
2023-02-13T05:10:00,75s,3.06
2023-02-13T05:11:00,75s,3.17
2023-02-13T05:12:00,75s,3.65
2023-02-13T05:13:00,75s,3.32
2023-02-13T05:14:00,75s,3.18
2023-02-13T05:15:00,75s,3.22
2023-02-13T05:16:00,75s,3.06
2023-02-13T05:17:00,75s,3.03
2023-02-13T05:18:00,75s,3.10
2023-02-13T05:19:00,75s,3.04
2023-02-13T05:20:00,75s,3.15
2023-02-13T05:21:00,75s,3.15
2023-02-13T05:22:00,75s,3.27
2023-02-13T05:23:00,75s,3.15
2023-02-13T05:24:00,75s,3.22
2023-02-13T05:25:00,75s,3.18
2023-02-13T05:26:00,75s,3.06
2023-02-13T05:27:00,75s,3.46
2023-02-13T05:28:00,75s,2.97
2023-02-13T05:29:00,75s,2.98
2023-02-13T05:30:00,75s,2.97
2023-02-13T05:31:00,75s,3.10
2023-02-13T05:32:00,75s,3.10
2023-02-13T05:33:00,75s,3.11
2023-02-13T05:34:00,75s,3.04
2023-02-13T05:35:00,75s,3.42
2023-02-13T05:36:00,75s,3.08
2023-02-13T05:37:00,75s,3.23
2023-02-13T05:38:00,75s,3.38
2023-02-13T05:39:00,75s,3.24
2023-02-13T05:40:00,75s,3.10
2023-02-13T05:41:00,75s,3.22
2023-02-13T05:42:00,75s,3.24
2023-02-13T05:43:00,75s,3.25
2023-02-13T05:44:00,75s,3.38
2023-02-13T05:45:00,75s,3.40
2023-02-13T05:46:00,75s,3.44
2023-02-13T05:47:00,75s,3.34
2023-02-13T05:48:00,75s,3.43
2023-02-13T05:49:00,75s,3.42
2023-02-13T05:50:00,75s,3.63
2023-02-13T05:51:00,75s,3.44
2023-02-13T05:52:00,75s,3.57
2023-02-13T05:53:00,75s,4.07
2023-02-13T05:54:00,75s,3.91
2023-02-13T05:55:00,75s,3.80
2023-02-13T05:56:00,75s,3.33
2023-02-13T05:57:00,75s,3.30
2023-02-13T05:58:00,75s,3.28
2023-02-13T05:59:00,75s,3.36
2023-02-13T06:00:00,75s,3.40
2023-02-13T06:01:00,75s,3.87
2023-02-13T06:02:00,75s,3.71
2023-02-13T06:03:00,75s,3.77
2023-02-13T06:04:00,75s,3.32
2023-02-13T06:05:00,75s,3.62
2023-02-13T06:06:00,75s,3.48
2023-02-13T06:07:00,75s,3.46
2023-02-13T06:08:00,75s,3.47
2023-02-13T06:09:00,75s,3.67
2023-02-13T06:10:00,75s,3.46
2023-02-13T06:11:00,75s,3.80
2023-02-13T06:12:00,75s,3.84
2023-02-13T06:13:00,75s,3.85
2023-02-13T06:14:00,75s,4.16
2023-02-13T06:15:00,75s,4.01
2023-02-13T06:16:00,75s,3.90
2023-02-13T06:17:00,75s,3.82
2023-02-13T06:18:00,75s,3.76
2023-02-13T06:19:00,75s,3.75
2023-02-13T06:20:00,75s,3.77
2023-02-13T06:21:00,75s,3.87
2023-02-13T06:22:00,75s,3.85
2023-02-13T06:23:00,75s,3.85
2023-02-13T06:24:00,75s,3.75
2023-02-13T06:25:00,75s,3.80
2023-02-13T06:26:00,75s,3.86
2023-02-13T06:27:00,75s,3.86
2023-02-13T06:28:00,75s,3.86
2023-02-13T06:29:00,75s,3.87
2023-02-13T06:30:00,75s,3.89
2023-02-13T06:31:00,75s,3.91
2023-02-13T06:32:00,75s,3.95
2023-02-13T06:33:00,75s,4.28
2023-02-13T06:34:00,75s,3.95
2023-02-13T06:35:00,75s,3.98
2023-02-13T06:36:00,75s,3.94
2023-02-13T06:37:00,75s,4.04
2023-02-13T06:38:00,75s,4.04
2023-02-13T06:39:00,75s,3.93
2023-02-13T06:40:00,75s,3.85
2023-02-13T06:41:00,75s,4.18
2023-02-13T06:42:00,75s,3.80
2023-02-13T06:43:00,75s,14.66
2023-02-13T06:44:00,75s,3.84
2023-02-13T06:45:00,75s,4.21
2023-02-13T06:46:00,75s,3.96
2023-02-13T06:47:00,75s,3.97
2023-02-13T06:48:00,75s,3.90
2023-02-13T06:49:00,75s,4.29
2023-02-13T06:50:00,75s,4.10
2023-02-13T06:51:00,75s,4.11
2023-02-13T06:52:00,75s,3.99
2023-02-13T06:53:00,75s,3.86
2023-02-13T06:54:00,75s,3.76
2023-02-13T06:55:00,75s,3.62
2023-02-13T06:56:00,75s,3.63
2023-02-13T06:57:00,75s,3.62
2023-02-13T06:58:00,75s,3.65
2023-02-13T06:59:00,75s,3.63
2023-02-13T07:00:00,75s,3.64
2023-02-13T07:01:00,75s,3.61
2023-02-13T07:02:00,75s,3.56
2023-02-13T07:03:00,75s,3.51
2023-02-13T07:04:00,75s,3.64
2023-02-13T07:05:00,75s,3.63
2023-02-13T07:06:00,75s,3.59
2023-02-13T07:07:00,75s,3.61
2023-02-13T07:08:00,75s,3.47
2023-02-13T07:09:00,75s,3.58
2023-02-13T07:10:00,75s,4.06
2023-02-13T07:11:00,75s,4.20
2023-02-13T07:12:00,75s,3.74
2023-02-13T07:13:00,75s,3.62
2023-02-13T07:14:00,75s,3.41
2023-02-13T07:15:00,75s,3.42
2023-02-13T07:16:00,75s,3.40
2023-02-13T07:17:00,75s,3.41
2023-02-13T07:18:00,75s,3.42
2023-02-13T07:19:00,75s,14.54
2023-02-13T07:20:00,75s,3.80
2023-02-13T07:21:00,75s,3.56
2023-02-13T07:22:00,75s,3.54
2023-02-13T07:23:00,75s,3.76
2023-02-13T07:24:00,75s,3.59
2023-02-13T07:25:00,75s,3.53
2023-02-13T07:26:00,75s,3.23
2023-02-13T07:27:00,75s,3.12
2023-02-13T07:28:00,75s,12.39
2023-02-13T07:29:00,75s,13.33
2023-02-13T07:30:00,75s,12.30
2023-02-13T07:31:00,75s,12.18
2023-02-13T07:32:00,75s,12.13
2023-02-13T07:33:00,75s,12.16
2023-02-13T07:34:00,75s,12.09
2023-02-13T07:35:00,75s,12.00
2023-02-13T07:36:00,75s,3.39
2023-02-13T07:37:00,75s,3.23
2023-02-13T07:38:00,75s,3.20
2023-02-13T07:39:00,75s,3.19
2023-02-13T07:40:00,75s,3.18
2023-02-13T07:41:00,75s,3.33
2023-02-13T07:42:00,75s,3.28
2023-02-13T07:43:00,75s,3.31
2023-02-13T07:44:00,75s,3.22
2023-02-13T07:45:00,75s,3.35
2023-02-13T07:46:00,75s,3.26
2023-02-13T07:47:00,75s,3.30
2023-02-13T07:48:00,75s,14.04
2023-02-13T07:49:00,75s,3.52
2023-02-13T07:50:00,75s,3.33
2023-02-13T07:51:00,75s,3.24
2023-02-13T07:52:00,75s,3.24
2023-02-13T07:53:00,75s,3.09
2023-02-13T07:54:00,75s,3.21
2023-02-13T07:55:00,75s,3.18
2023-02-13T07:56:00,75s,3.55
2023-02-13T07:57:00,75s,3.76
2023-02-13T07:58:00,75s,3.39
2023-02-13T07:59:00,75s,3.15
2023-02-13T08:00:00,75s,3.15
2023-02-13T08:01:00,75s,3.18
2023-02-13T08:02:00,75s,3.37
2023-02-13T08:03:00,75s,3.49
2023-02-13T08:04:00,75s,3.42
2023-02-13T08:05:00,75s,3.66
2023-02-13T08:06:00,75s,3.40
2023-02-13T08:07:00,75s,3.91
2023-02-13T08:08:00,75s,3.96
2023-02-13T08:09:00,75s,3.40
2023-02-13T08:10:00,75s,3.91
2023-02-13T08:11:00,75s,3.44
2023-02-13T08:12:00,75s,3.62
2023-02-13T08:13:00,75s,3.45
2023-02-13T08:14:00,75s,3.19
2023-02-13T08:15:00,75s,3.19
2023-02-13T08:16:00,75s,3.26
2023-02-13T08:17:00,75s,3.44
2023-02-13T08:18:00,75s,3.44
2023-02-13T08:19:00,75s,3.44
2023-02-13T08:20:00,75s,3.30
2023-02-13T08:21:00,75s,3.25
2023-02-13T08:22:00,75s,3.25
2023-02-13T08:23:00,75s,3.38
2023-02-13T08:24:00,75s,4.09
2023-02-13T08:25:00,75s,3.44
2023-02-13T08:26:00,75s,3.37
2023-02-13T08:27:00,75s,3.48
2023-02-13T08:28:00,75s,3.48
2023-02-13T08:29:00,75s,3.59
2023-02-13T08:30:00,75s,3.57
2023-02-13T08:31:00,75s,3.74
2023-02-13T08:32:00,75s,3.51
2023-02-13T08:33:00,75s,3.74
2023-02-13T08:34:00,75s,3.66
2023-02-13T08:35:00,75s,3.92
2023-02-13T08:36:00,75s,3.64
2023-02-13T08:37:00,75s,3.71
2023-02-13T08:38:00,75s,3.86
2023-02-13T08:39:00,75s,3.89
2023-02-13T08:40:00,75s,3.97
2023-02-13T08:41:00,75s,4.03
2023-02-13T08:42:00,75s,4.10
2023-02-13T08:43:00,75s,4.09
2023-02-13T08:44:00,75s,3.93
2023-02-13T08:45:00,75s,3.95
2023-02-13T08:46:00,75s,4.07
2023-02-13T08:47:00,75s,4.07
2023-02-13T08:48:00,75s,4.06
2023-02-13T08:49:00,75s,3.93
2023-02-13T08:50:00,75s,3.97
2023-02-13T08:51:00,75s,4.00
2023-02-13T08:52:00,75s,4.48
2023-02-13T08:53:00,75s,3.86
2023-02-13T08:54:00,75s,3.82
2023-02-13T08:55:00,75s,3.77
2023-02-13T08:56:00,75s,3.73
2023-02-13T08:57:00,75s,3.82
2023-02-13T08:58:00,75s,3.85
2023-02-13T08:59:00,75s,3.76
2023-02-13T09:00:00,75s,3.89
2023-02-13T09:01:00,75s,3.93
2023-02-13T09:02:00,75s,4.01
2023-02-13T09:03:00,75s,3.94
2023-02-13T09:04:00,75s,3.81
2023-02-13T09:05:00,75s,3.88
2023-02-13T09:06:00,75s,3.81
2023-02-13T09:07:00,75s,3.77
2023-02-13T09:08:00,75s,3.87
2023-02-13T09:09:00,75s,3.75
2023-02-13T09:10:00,75s,3.81
2023-02-13T09:11:00,75s,3.78
2023-02-13T09:12:00,75s,14.44
2023-02-13T09:13:00,75s,3.73
2023-02-13T09:14:00,75s,4.20
2023-02-13T09:15:00,75s,3.92
2023-02-13T09:16:00,75s,3.99
2023-02-13T09:17:00,75s,14.76
2023-02-13T09:18:00,75s,3.91
2023-02-13T09:19:00,75s,3.81
2023-02-13T09:20:00,75s,3.79
2023-02-13T09:21:00,75s,3.88
2023-02-13T09:22:00,75s,4.31
2023-02-13T09:23:00,75s,3.95
2023-02-13T09:24:00,75s,4.22
2023-02-13T09:25:00,75s,4.03
2023-02-13T09:26:00,75s,4.04
2023-02-13T09:27:00,75s,4.02
2023-02-13T09:28:00,75s,4.07
2023-02-13T09:29:00,75s,4.26
2023-02-13T09:30:00,75s,4.16
2023-02-13T09:31:00,75s,4.69
2023-02-13T09:32:00,75s,4.21
2023-02-13T09:33:00,75s,4.33
2023-02-13T09:34:00,75s,4.39
2023-02-13T09:35:00,75s,4.36
2023-02-13T09:36:00,75s,4.36
2023-02-13T09:37:00,75s,4.30
2023-02-13T09:38:00,75s,4.43
2023-02-13T09:39:00,75s,4.45
2023-02-13T09:40:00,75s,5.28
2023-02-13T09:41:00,75s,5.53
2023-02-13T09:42:00,75s,4.70
2023-02-13T09:43:00,75s,5.06
2023-02-13T09:44:00,75s,5.22
2023-02-13T09:45:00,75s,5.32
2023-02-13T09:46:00,75s,5.25
2023-02-13T09:47:00,75s,5.28
2023-02-13T09:48:00,75s,5.39
2023-02-13T09:49:00,75s,5.17
2023-02-13T09:50:00,75s,6.19
2023-02-13T09:51:00,75s,5.33
2023-02-13T09:52:00,75s,5.41
2023-02-13T09:53:00,75s,5.43
2023-02-13T09:54:00,75s,5.81
2023-02-13T09:55:00,75s,5.36
2023-02-13T09:56:00,75s,5.33
2023-02-13T09:57:00,75s,5.70
2023-02-13T09:58:00,75s,5.78
2023-02-13T09:59:00,75s,6.04
2023-02-13T10:00:00,75s,5.98
2023-02-13T10:01:00,75s,5.44
2023-02-13T10:02:00,75s,5.63
2023-02-13T10:03:00,75s,5.66
2023-02-13T10:04:00,75s,5.72
2023-02-13T10:05:00,75s,5.92
2023-02-13T10:06:00,75s,6.21
2023-02-13T10:07:00,75s,6.13
2023-02-13T10:08:00,75s,6.08
2023-02-13T10:09:00,75s,6.63
2023-02-13T10:10:00,75s,6.43
2023-02-13T10:11:00,75s,6.55
2023-02-13T10:12:00,75s,6.91
2023-02-13T10:13:00,75s,6.78
2023-02-13T10:14:00,75s,6.50
2023-02-13T10:15:00,75s,6.34
2023-02-13T10:16:00,75s,6.72
2023-02-13T10:17:00,75s,6.42
2023-02-13T10:18:00,75s,6.42
2023-02-13T10:19:00,75s,6.37
2023-02-13T10:20:00,75s,6.41
2023-02-13T10:21:00,75s,6.46
2023-02-13T10:22:00,75s,6.43
2023-02-13T10:23:00,75s,6.65
2023-02-13T10:24:00,75s,6.44
2023-02-13T10:25:00,75s,6.36
2023-02-13T10:26:00,75s,6.46
2023-02-13T10:27:00,75s,6.46
2023-02-13T10:28:00,75s,6.35
2023-02-13T10:29:00,75s,6.20
2023-02-13T10:30:00,75s,6.21
2023-02-13T10:31:00,75s,6.51
2023-02-13T10:32:00,75s,6.24
2023-02-13T10:33:00,75s,6.25
2023-02-13T10:34:00,75s,15.55
2023-02-13T10:35:00,75s,15.29
2023-02-13T10:36:00,75s,15.20
2023-02-13T10:37:00,75s,15.09
2023-02-13T10:38:00,75s,15.00
2023-02-13T10:39:00,75s,14.82
2023-02-13T10:40:00,75s,6.61
2023-02-13T10:41:00,75s,5.85
2023-02-13T10:42:00,75s,6.02
2023-02-13T10:43:00,75s,6.56
2023-02-13T10:44:00,75s,6.11
2023-02-13T10:45:00,75s,6.39
2023-02-13T10:46:00,75s,6.24
2023-02-13T10:47:00,75s,6.03
2023-02-13T10:48:00,75s,5.89
2023-02-13T10:49:00,75s,5.87
2023-02-13T10:50:00,75s,5.80
2023-02-13T10:51:00,75s,6.09
2023-02-13T10:52:00,75s,6.04
2023-02-13T10:53:00,75s,5.74
2023-02-13T10:54:00,75s,6.00
2023-02-13T10:55:00,75s,5.90
2023-02-13T10:56:00,75s,5.85
2023-02-13T10:57:00,75s,5.66
2023-02-13T10:58:00,75s,5.59
2023-02-13T10:59:00,75s,6.00
2023-02-13T11:00:00,75s,5.80
2023-02-13T11:01:00,75s,6.15
2023-02-13T11:02:00,75s,6.42
2023-02-13T11:03:00,75s,5.94
2023-02-13T11:04:00,75s,6.02
2023-02-13T11:05:00,75s,5.95
2023-02-13T11:06:00,75s,6.11
2023-02-13T11:07:00,75s,5.89
2023-02-13T11:08:00,75s,6.00
2023-02-13T11:09:00,75s,6.03
2023-02-13T11:10:00,75s,6.61
2023-02-13T11:11:00,75s,5.99
2023-02-13T11:12:00,75s,6.65
2023-02-13T11:13:00,75s,6.54
2023-02-13T11:14:00,75s,7.09
2023-02-13T11:15:00,75s,6.40
2023-02-13T11:16:00,75s,6.48
2023-02-13T11:17:00,75s,6.40
2023-02-13T11:18:00,75s,6.49
2023-02-13T11:19:00,75s,6.47
2023-02-13T11:20:00,75s,6.59
2023-02-13T11:21:00,75s,6.77
2023-02-13T11:22:00,75s,6.66
2023-02-13T11:23:00,75s,6.77
2023-02-13T11:24:00,75s,6.76
2023-02-13T11:25:00,75s,6.89
2023-02-13T11:26:00,75s,6.32
2023-02-13T11:27:00,75s,6.36
2023-02-13T11:28:00,75s,6.56
2023-02-13T11:29:00,75s,6.34
2023-02-13T11:30:00,75s,6.31
2023-02-13T11:31:00,75s,6.52
2023-02-13T11:32:00,75s,6.38
2023-02-13T11:33:00,75s,6.40
2023-02-13T11:34:00,75s,6.65
2023-02-13T11:35:00,75s,6.22
2023-02-13T11:36:00,75s,6.73
2023-02-13T11:37:00,75s,6.36
2023-02-13T11:38:00,75s,6.48
2023-02-13T11:39:00,75s,6.49
2023-02-13T11:40:00,75s,6.44
2023-02-13T11:41:00,75s,6.87
2023-02-13T11:42:00,75s,6.46
2023-02-13T11:43:00,75s,6.40
2023-02-13T11:44:00,75s,6.43
2023-02-13T11:45:00,75s,6.47
2023-02-13T11:46:00,75s,6.36
2023-02-13T11:47:00,75s,6.45
2023-02-13T11:48:00,75s,6.48
2023-02-13T11:49:00,75s,6.78
2023-02-13T11:50:00,75s,6.98
2023-02-13T11:51:00,75s,6.73
2023-02-13T11:52:00,75s,6.72
2023-02-13T11:53:00,75s,6.67
2023-02-13T11:54:00,75s,6.55
2023-02-13T11:55:00,75s,6.56
2023-02-13T11:56:00,75s,6.49
2023-02-13T11:57:00,75s,6.52
2023-02-13T11:58:00,75s,6.60
2023-02-13T11:59:00,75s,6.61
2023-02-13T12:00:00,75s,6.60
2023-02-13T12:01:00,75s,6.58
2023-02-13T12:02:00,75s,6.56
2023-02-13T12:03:00,75s,6.54
2023-02-13T12:04:00,75s,6.50
2023-02-13T12:05:00,75s,6.68
2023-02-13T12:06:00,75s,6.89
2023-02-13T12:07:00,75s,6.54
2023-02-13T12:08:00,75s,6.45
2023-02-13T12:09:00,75s,6.77
2023-02-13T12:10:00,75s,6.56
2023-02-13T12:11:00,75s,6.42
2023-02-13T12:12:00,75s,6.53
2023-02-13T12:13:00,75s,6.70
2023-02-13T12:14:00,75s,7.96
2023-02-13T12:15:00,75s,6.80
2023-02-13T12:16:00,75s,7.02
2023-02-13T12:17:00,75s,7.08
2023-02-13T12:18:00,75s,7.85
2023-02-13T12:19:00,75s,7.28
2023-02-13T12:20:00,75s,7.16
2023-02-13T12:21:00,75s,6.98
2023-02-13T12:22:00,75s,6.93
2023-02-13T12:23:00,75s,6.91
2023-02-13T12:24:00,75s,6.92
2023-02-13T12:25:00,75s,6.96
2023-02-13T12:26:00,75s,6.52
2023-02-13T12:27:00,75s,6.62
2023-02-13T12:28:00,75s,6.46
2023-02-13T12:29:00,75s,6.77
2023-02-13T12:30:00,75s,6.13
2023-02-13T12:31:00,75s,6.30
2023-02-13T12:32:00,75s,6.59
2023-02-13T12:33:00,75s,6.42
2023-02-13T12:34:00,75s,7.05
2023-02-13T12:35:00,75s,6.42
2023-02-13T12:36:00,75s,6.36
2023-02-13T12:37:00,75s,6.22
2023-02-13T12:38:00,75s,6.26
2023-02-13T12:39:00,75s,6.48
2023-02-13T12:40:00,75s,6.29
2023-02-13T12:41:00,75s,6.25
2023-02-13T12:42:00,75s,6.01
2023-02-13T12:43:00,75s,6.14
2023-02-13T12:44:00,75s,6.31
2023-02-13T12:45:00,75s,6.20
2023-02-13T12:46:00,75s,6.21
2023-02-13T12:47:00,75s,6.13
2023-02-13T12:48:00,75s,6.18
2023-02-13T12:49:00,75s,5.97
2023-02-13T12:50:00,75s,5.61
2023-02-13T12:51:00,75s,5.64
2023-02-13T12:52:00,75s,5.62
2023-02-13T12:53:00,75s,5.49
2023-02-13T12:54:00,75s,5.45
2023-02-13T12:55:00,75s,5.47
2023-02-13T12:56:00,75s,5.42
2023-02-13T12:57:00,75s,5.67
2023-02-13T12:58:00,75s,5.59
2023-02-13T12:59:00,75s,5.49
2023-02-13T13:00:00,75s,5.46
2023-02-13T13:01:00,75s,5.36
2023-02-13T13:02:00,75s,5.29
2023-02-13T13:03:00,75s,5.20
2023-02-13T13:04:00,75s,5.11
2023-02-13T13:05:00,75s,5.08
2023-02-13T13:06:00,75s,5.27
2023-02-13T13:07:00,75s,5.21
2023-02-13T13:08:00,75s,5.18
2023-02-13T13:09:00,75s,5.35
2023-02-13T13:10:00,75s,5.36
2023-02-13T13:11:00,75s,5.34
2023-02-13T13:12:00,75s,5.32
2023-02-13T13:13:00,75s,5.66
2023-02-13T13:14:00,75s,5.65
2023-02-13T13:15:00,75s,5.69
2023-02-13T13:16:00,75s,5.89
2023-02-13T13:17:00,75s,5.74
2023-02-13T13:18:00,75s,5.52
2023-02-13T13:19:00,75s,5.59
2023-02-13T13:20:00,75s,5.54
2023-02-13T13:21:00,75s,5.54
2023-02-13T13:22:00,75s,14.77
2023-02-13T13:23:00,75s,14.56
2023-02-13T13:24:00,75s,14.71
2023-02-13T13:25:00,75s,14.58
2023-02-13T13:26:00,75s,14.24
2023-02-13T13:27:00,75s,14.13
2023-02-13T13:28:00,75s,5.49
2023-02-13T13:29:00,75s,6.20
2023-02-13T13:30:00,75s,5.77
2023-02-13T13:31:00,75s,5.75
2023-02-13T13:32:00,75s,5.64
2023-02-13T13:33:00,75s,5.65
2023-02-13T13:34:00,75s,5.59
2023-02-13T13:35:00,75s,5.98
2023-02-13T13:36:00,75s,6.01
2023-02-13T13:37:00,75s,5.51
2023-02-13T13:38:00,75s,5.98
2023-02-13T13:39:00,75s,5.71
2023-02-13T13:40:00,75s,5.55
2023-02-13T13:41:00,75s,5.44
2023-02-13T13:42:00,75s,5.45
2023-02-13T13:43:00,75s,5.75
2023-02-13T13:44:00,75s,5.60